contact:dominique.lefevre@mio.osupytheas.fr, maurice.libes@osupytheas.fr, didier.mallarino@osupytheas.fr
Project:EMSO http://www.emso-fr.org/EMSO-France
Depth: 2436.0 m
Title:EMSO Ligure Ouest : Data MII capteur AQUADOPP
Date,Latitude,Longitude,X_East,Y_North,Z_Up,Amplitude_X,Amplitude_Y,Amplitude_Z,Batterie,SoundSpeed,Heading,Pitch,Roll,Pressure,TIS,Speed,Direction
, degrees North, degrees East, m.s-1, m.s-1,m.s-1, 1, 1, 1, Volt, m.s-1, degree, degree, degree, dbar, degree_C, m.s-1, degree
2021-05-21T00:04:03,42.805,6.029,-0.025,-0.011,0.005,101.0,101.0,101.0,13.3,1505.2,327.8,-0.8,1.8,2470.498,13.28,0.027,246.3
2021-05-21T00:07:03,42.805,6.029,-0.045,-0.02,0.0,103.0,100.0,100.0,13.3,1505.2,324.4,-0.8,1.8,2470.48,13.28,0.049,246.0
2021-05-21T00:10:03,42.805,6.029,-0.061,0.003,-0.006,102.0,102.0,101.0,13.3,1505.2,327.7,-0.7,1.8,2470.46,13.28,0.061,272.8
2021-05-21T00:13:03,42.805,6.029,-0.048,0.0,-0.015,102.0,102.0,101.0,13.4,1505.2,327.5,-0.7,1.8,2470.505,13.28,0.048,270.0
2021-05-21T00:16:03,42.805,6.029,-0.056,-0.015,0.016,101.0,101.0,102.0,13.3,1505.2,329.0,-0.7,1.8,2470.478,13.28,0.057,255.0
2021-05-21T00:19:03,42.805,6.029,-0.041,-0.002,-0.008,102.0,101.0,101.0,13.3,1505.2,328.2,-0.7,1.8,2470.472,13.28,0.041,267.2
2021-05-21T00:22:03,42.805,6.029,-0.062,0.015,-0.015,103.0,101.0,100.0,13.4,1505.2,325.8,-0.8,1.8,2470.487,13.28,0.063,283.6
2021-05-21T00:25:03,42.805,6.029,-0.033,-0.003,-0.015,102.0,102.0,101.0,13.4,1505.2,328.5,-0.8,1.8,2470.474,13.28,0.033,264.8
2021-05-21T00:28:03,42.805,6.029,-0.057,0.006,0.0,101.0,101.0,101.0,13.4,1505.2,329.1,-0.8,1.8,2470.476,13.28,0.057,276.0
2021-05-21T00:31:03,42.805,6.029,-0.043,0.034,0.005,102.0,102.0,101.0,13.3,1505.2,328.0,-0.7,1.8,2470.498,13.28,0.054,308.3
2021-05-21T00:34:03,42.805,6.029,-0.064,0.01,0.015,101.0,102.0,101.0,13.4,1505.2,327.3,-0.8,1.8,2470.468,13.28,0.064,278.9
2021-05-21T00:37:03,42.805,6.029,-0.032,0.004,-0.006,103.0,101.0,101.0,13.3,1505.2,329.2,-0.8,1.8,2470.454,13.28,0.032,277.1
2021-05-21T00:40:03,42.805,6.029,-0.054,-0.023,-0.029,102.0,102.0,100.0,13.4,1505.2,324.4,-0.8,1.8,2470.471,13.28,0.058,246.9
2021-05-21T00:43:03,42.805,6.029,-0.047,-0.001,-0.009,101.0,103.0,101.0,13.4,1505.2,326.3,-0.7,1.8,2470.514,13.28,0.047,268.8
2021-05-21T00:46:03,42.805,6.029,-0.053,0.003,0.011,103.0,101.0,100.0,13.4,1505.2,329.3,-0.8,1.8,2470.499,13.28,0.053,273.2
2021-05-21T00:49:03,42.805,6.029,-0.064,0.013,-0.019,102.0,102.0,101.0,13.4,1505.2,329.5,-0.7,1.8,2470.498,13.28,0.065,281.5
2021-05-21T00:52:03,42.805,6.029,-0.048,0.004,-0.012,103.0,101.0,100.0,13.3,1505.2,328.8,-0.8,1.8,2470.481,13.28,0.048,274.8
2021-05-21T00:55:03,42.805,6.029,-0.046,-0.008,-0.007,102.0,102.0,101.0,13.4,1505.2,327.5,-0.7,1.8,2470.497,13.28,0.046,260.1
2021-05-21T00:58:03,42.805,6.029,-0.055,-0.007,0.0,102.0,104.0,102.0,13.3,1505.2,329.8,-0.8,1.8,2470.497,13.28,0.055,262.7
2021-05-21T01:04:03,42.805,6.029,-0.049,0.0,-0.036,102.0,102.0,100.0,13.4,1505.2,327.4,-0.8,1.8,2470.557,13.28,0.049,270.0
2021-05-21T01:07:03,42.805,6.029,-0.032,-0.039,-0.014,101.0,101.0,101.0,13.4,1505.2,324.6,-0.7,1.8,2470.514,13.28,0.05,219.4
2021-05-21T01:10:03,42.805,6.029,-0.069,-0.012,-0.012,102.0,100.0,101.0,13.4,1505.2,328.3,-0.7,1.8,2470.502,13.28,0.07,260.1
2021-05-21T01:13:03,42.805,6.029,-0.058,0.0,-0.013,102.0,103.0,101.0,13.4,1505.2,327.5,-0.7,1.8,2470.497,13.28,0.057,270.0
2021-05-21T01:16:03,42.805,6.029,-0.072,-0.011,-0.005,102.0,99.0,101.0,13.4,1505.2,324.6,-0.8,1.9,2470.525,13.28,0.072,261.3
2021-05-21T01:19:03,42.805,6.029,-0.057,-0.002,-0.003,102.0,103.0,100.0,13.3,1505.2,325.4,-0.8,1.8,2470.524,13.28,0.057,268.0
2021-05-21T01:22:03,42.805,6.029,-0.069,-0.003,-0.022,101.0,102.0,101.0,13.3,1505.2,329.2,-0.8,1.8,2470.483,13.28,0.069,267.5
2021-05-21T01:25:03,42.805,6.029,-0.068,0.003,0.01,101.0,101.0,101.0,13.4,1505.2,324.4,-0.7,1.9,2470.508,13.28,0.068,272.5
2021-05-21T01:28:03,42.805,6.029,-0.087,0.009,-0.016,102.0,102.0,100.0,13.4,1505.2,325.3,-0.8,1.8,2470.513,13.28,0.087,275.9
2021-05-21T01:31:03,42.805,6.029,-0.042,0.016,-0.035,103.0,100.0,101.0,13.3,1505.2,327.3,-0.7,1.8,2470.478,13.28,0.044,290.9
2021-05-21T01:34:03,42.805,6.029,-0.042,-0.007,-0.001,102.0,101.0,101.0,13.4,1505.2,328.6,-0.8,1.8,2470.5,13.28,0.042,260.5
2021-05-21T01:37:03,42.805,6.029,-0.046,0.017,-0.002,102.0,102.0,102.0,13.4,1505.2,329.4,-0.7,1.8,2470.504,13.28,0.049,290.3
2021-05-21T01:40:03,42.805,6.029,-0.077,0.004,-0.046,103.0,101.0,101.0,13.3,1505.2,327.3,-0.8,1.8,2470.509,13.28,0.077,273.0
2021-05-21T01:43:03,42.805,6.029,-0.063,0.005,0.002,102.0,102.0,101.0,13.3,1505.2,326.0,-0.8,1.8,2470.492,13.28,0.063,274.5
2021-05-21T01:46:03,42.805,6.029,-0.058,-0.015,-0.033,101.0,103.0,101.0,13.4,1505.2,329.2,-0.8,1.8,2470.517,13.28,0.059,255.5
2021-05-21T01:49:03,42.805,6.029,-0.041,0.0,0.02,103.0,101.0,101.0,13.4,1505.2,324.6,-0.7,1.8,2470.504,13.28,0.041,270.0
2021-05-21T01:52:03,42.805,6.029,-0.044,-0.009,0.004,102.0,102.0,102.0,13.3,1505.2,328.1,-0.8,1.8,2470.509,13.28,0.044,258.4
2021-05-21T01:55:03,42.805,6.029,-0.04,0.006,0.017,102.0,102.0,101.0,13.4,1505.2,328.8,-0.7,1.9,2470.503,13.28,0.04,278.5
2021-05-21T01:58:03,42.805,6.029,-0.045,0.0,0.0,103.0,102.0,102.0,13.3,1505.2,326.3,-0.8,1.8,2470.483,13.28,0.045,270.0
2021-05-21T02:04:03,42.805,6.029,-0.033,-0.011,-0.028,103.0,103.0,101.0,13.4,1505.2,328.8,-0.7,1.8,2470.576,13.28,0.034,251.6
2021-05-21T02:07:03,42.805,6.029,-0.05,0.038,0.01,101.0,103.0,100.0,13.4,1505.2,325.9,-0.8,1.8,2470.525,13.28,0.062,307.2
2021-05-21T02:10:03,42.805,6.029,-0.053,0.005,0.019,102.0,102.0,102.0,13.3,1505.2,327.6,-0.8,1.8,2470.495,13.28,0.053,275.4
2021-05-21T02:13:03,42.805,6.029,-0.056,0.005,-0.016,101.0,102.0,101.0,13.3,1505.2,328.3,-0.7,1.8,2470.544,13.28,0.056,275.1
2021-05-21T02:16:03,42.805,6.029,-0.059,0.009,-0.026,102.0,102.0,101.0,13.4,1505.2,329.3,-0.8,1.8,2470.531,13.28,0.059,278.7
2021-05-21T02:19:03,42.805,6.029,-0.05,0.016,-0.003,103.0,103.0,100.0,13.4,1505.2,327.8,-0.8,1.8,2470.517,13.28,0.052,287.7
2021-05-21T02:22:03,42.805,6.029,-0.061,0.031,0.022,103.0,101.0,101.0,13.4,1505.2,328.6,-0.8,1.8,2470.503,13.28,0.068,296.9
2021-05-21T02:25:03,42.805,6.029,-0.073,0.004,-0.043,103.0,102.0,100.0,13.4,1505.2,327.7,-0.8,1.8,2470.568,13.28,0.073,273.1
2021-05-21T02:28:03,42.805,6.029,-0.05,0.003,0.007,102.0,101.0,101.0,13.4,1505.2,329.1,-0.7,1.8,2470.507,13.28,0.05,273.4
2021-05-21T02:31:03,42.805,6.029,-0.067,-0.003,-0.024,103.0,101.0,101.0,13.4,1505.2,327.8,-0.8,1.8,2470.502,13.28,0.067,267.4
2021-05-21T02:34:03,42.805,6.029,-0.05,-0.008,0.004,101.0,104.0,101.0,13.4,1505.2,328.7,-0.8,1.8,2470.527,13.28,0.05,260.9
2021-05-21T02:37:03,42.805,6.029,-0.051,0.02,0.004,101.0,103.0,101.0,13.4,1505.2,327.0,-0.8,1.8,2470.539,13.28,0.054,291.4
2021-05-21T02:40:03,42.805,6.029,-0.066,0.014,-0.034,102.0,101.0,101.0,13.4,1505.2,324.6,-0.8,1.9,2470.532,13.28,0.067,282.0
2021-05-21T02:43:03,42.805,6.029,-0.063,0.011,0.019,102.0,101.0,100.0,13.4,1505.2,327.5,-0.7,1.9,2470.486,13.28,0.063,279.9
2021-05-21T02:46:03,42.805,6.029,-0.061,-0.001,-0.011,101.0,102.0,101.0,13.4,1505.2,326.4,-0.7,1.8,2470.545,13.28,0.061,269.1
2021-05-21T02:49:03,42.805,6.029,-0.077,0.002,-0.015,101.0,102.0,101.0,13.4,1505.2,329.6,-0.8,1.8,2470.55,13.28,0.077,271.5
2021-05-21T02:52:03,42.805,6.029,-0.049,0.01,-0.02,101.0,101.0,101.0,13.4,1505.2,329.5,-0.8,1.8,2470.525,13.28,0.05,281.5
2021-05-21T02:55:03,42.805,6.029,-0.06,0.021,-0.002,101.0,103.0,100.0,13.4,1505.2,329.2,-0.7,1.8,2470.539,13.28,0.063,289.3
2021-05-21T02:58:03,42.805,6.029,-0.047,0.014,0.019,102.0,102.0,101.0,13.4,1505.2,324.3,-0.7,1.8,2470.51,13.28,0.049,286.6
2021-05-21T03:04:03,42.805,6.029,-0.071,0.013,-0.004,101.0,103.0,99.0,13.3,1505.2,328.5,-0.8,1.8,2470.589,13.28,0.072,280.4
2021-05-21T03:07:03,42.805,6.029,-0.063,0.011,-0.015,101.0,102.0,101.0,13.4,1505.2,327.9,-0.7,1.8,2470.512,13.28,0.063,279.9
2021-05-21T03:10:03,42.805,6.029,-0.057,-0.003,-0.011,102.0,101.0,101.0,13.4,1505.2,327.0,-0.8,1.8,2470.54,13.28,0.057,267.0
2021-05-21T03:13:03,42.805,6.029,-0.061,0.024,-0.004,102.0,101.0,102.0,13.3,1505.2,325.9,-0.8,1.8,2470.498,13.28,0.065,291.5
2021-05-21T03:16:03,42.805,6.029,-0.09,0.019,-0.014,100.0,101.0,101.0,13.3,1505.2,325.9,-0.7,1.8,2470.524,13.28,0.091,281.9
2021-05-21T03:19:03,42.805,6.029,-0.048,0.012,0.002,101.0,103.0,100.0,13.4,1505.2,326.2,-0.8,1.9,2470.56,13.28,0.049,284.0
2021-05-21T03:22:03,42.805,6.029,-0.038,0.007,-0.002,102.0,100.0,102.0,13.3,1505.2,328.0,-0.8,1.8,2470.534,13.28,0.038,280.4
2021-05-21T03:25:03,42.805,6.029,-0.066,0.019,0.014,101.0,101.0,100.0,13.4,1505.2,325.7,-0.8,1.8,2470.526,13.28,0.068,286.1
2021-05-21T03:28:03,42.805,6.029,-0.064,0.002,-0.02,103.0,102.0,100.0,13.4,1505.2,326.8,-0.8,1.8,2470.515,13.28,0.064,271.8
2021-05-21T03:31:03,42.805,6.029,-0.068,0.0,0.002,102.0,102.0,100.0,13.3,1505.2,327.9,-0.8,1.8,2470.541,13.28,0.067,270.0
2021-05-21T03:34:03,42.805,6.029,-0.058,0.008,-0.002,100.0,103.0,100.0,13.3,1505.2,324.6,-0.7,1.8,2470.54,13.28,0.058,277.8
2021-05-21T03:37:03,42.805,6.029,-0.046,-0.007,0.024,102.0,101.0,100.0,13.4,1505.2,328.4,-0.8,1.8,2470.521,13.28,0.046,261.3
2021-05-21T03:40:03,42.805,6.029,-0.061,0.008,-0.013,102.0,101.0,100.0,13.4,1505.2,326.7,-0.7,1.8,2470.526,13.28,0.061,277.5
2021-05-21T03:43:03,42.805,6.029,-0.044,0.003,-0.006,102.0,100.0,101.0,13.3,1505.2,326.0,-0.8,1.9,2470.543,13.28,0.044,273.9
2021-05-21T03:46:03,42.805,6.029,-0.048,0.023,0.001,101.0,101.0,100.0,13.4,1505.2,325.9,-0.8,1.8,2470.518,13.28,0.053,295.6
2021-05-21T03:49:03,42.805,6.029,-0.051,0.011,0.0,102.0,100.0,101.0,13.4,1505.2,327.1,-0.8,1.8,2470.504,13.28,0.052,282.2
2021-05-21T03:52:03,42.805,6.029,-0.045,-0.023,0.016,101.0,100.0,100.0,13.4,1505.2,327.9,-0.7,1.8,2470.467,13.28,0.05,242.9
2021-05-21T03:55:03,42.805,6.029,-0.058,0.013,0.035,102.0,103.0,100.0,13.4,1505.2,327.8,-0.7,1.8,2470.543,13.28,0.059,282.6
2021-05-21T03:58:03,42.805,6.029,-0.063,0.011,0.0,101.0,101.0,100.0,13.4,1505.2,328.9,-0.8,1.8,2470.561,13.28,0.063,279.9
2021-05-21T04:04:03,42.805,6.029,-0.079,0.049,0.053,102.0,100.0,100.0,13.4,1505.2,325.5,-0.8,1.8,2470.545,13.28,0.092,301.8
2021-05-21T04:07:03,42.805,6.029,-0.061,0.025,0.013,101.0,102.0,100.0,13.4,1505.2,328.4,-0.7,1.8,2470.527,13.28,0.065,292.3
2021-05-21T04:10:03,42.805,6.029,-0.047,-0.015,0.002,102.0,101.0,101.0,13.4,1505.2,325.5,-0.7,1.8,2470.525,13.28,0.049,252.3
2021-05-21T04:13:03,42.805,6.029,-0.074,0.007,-0.035,101.0,101.0,101.0,13.3,1505.2,327.0,-0.8,1.8,2470.533,13.28,0.074,275.4
2021-05-21T04:16:03,42.805,6.029,-0.063,0.0,0.004,104.0,100.0,100.0,13.3,1505.2,324.7,-0.8,1.8,2470.481,13.28,0.062,270.0
2021-05-21T04:19:03,42.805,6.029,-0.055,0.014,0.007,101.0,101.0,100.0,13.4,1505.2,327.2,-0.8,1.8,2470.501,13.28,0.056,284.3
2021-05-21T04:22:03,42.805,6.029,-0.094,0.025,0.0,101.0,99.0,101.0,13.4,1505.2,327.1,-0.7,1.8,2470.491,13.28,0.097,284.9
2021-05-21T04:25:03,42.805,6.029,-0.054,0.014,0.01,100.0,100.0,101.0,13.4,1505.2,326.0,-0.7,1.8,2470.517,13.28,0.055,284.5
2021-05-21T04:28:03,42.805,6.029,-0.038,-0.005,0.001,102.0,102.0,99.0,13.4,1505.2,326.0,-0.8,1.8,2470.52,13.28,0.038,262.5
2021-05-21T04:31:03,42.805,6.029,-0.037,0.011,0.005,100.0,102.0,100.0,13.4,1505.2,329.1,-0.7,1.9,2470.516,13.28,0.038,286.6
2021-05-21T04:34:03,42.805,6.029,-0.066,0.026,0.044,100.0,102.0,100.0,13.4,1505.2,324.7,-0.8,1.8,2470.542,13.28,0.07,291.5
2021-05-21T04:37:03,42.805,6.029,-0.068,0.009,0.012,101.0,100.0,100.0,13.4,1505.2,328.5,-0.7,1.8,2470.47,13.28,0.068,277.5
2021-05-21T04:40:03,42.805,6.029,-0.058,0.007,0.038,102.0,101.0,100.0,13.3,1505.2,327.5,-0.8,1.8,2470.492,13.28,0.058,276.9
2021-05-21T04:43:03,42.805,6.029,-0.055,0.006,-0.005,98.0,101.0,101.0,13.4,1505.2,328.8,-0.8,1.8,2470.518,13.28,0.055,276.2
2021-05-21T04:46:03,42.805,6.029,-0.051,0.006,0.017,101.0,100.0,101.0,13.4,1505.2,324.6,-0.7,1.8,2470.525,13.28,0.051,276.7
2021-05-21T04:49:03,42.805,6.029,-0.052,0.011,0.014,100.0,101.0,100.0,13.3,1505.2,327.7,-0.8,1.8,2470.485,13.28,0.053,281.9
2021-05-21T04:52:03,42.805,6.029,-0.052,0.009,-0.012,99.0,100.0,100.0,13.4,1505.2,326.4,-0.7,1.8,2470.496,13.28,0.052,279.8
2021-05-21T04:55:03,42.805,6.029,-0.061,0.017,0.006,100.0,101.0,100.0,13.3,1505.2,327.9,-0.7,1.8,2470.515,13.28,0.063,285.6
2021-05-21T04:58:03,42.805,6.029,-0.043,0.022,0.009,100.0,100.0,100.0,13.4,1505.2,327.8,-0.8,1.8,2470.466,13.28,0.048,297.1
2021-05-21T05:04:03,42.805,6.029,-0.098,0.014,-0.004,99.0,101.0,101.0,13.4,1505.2,328.1,-0.7,1.8,2470.527,13.28,0.098,278.1
2021-05-21T05:07:03,42.805,6.029,-0.053,0.012,0.006,99.0,101.0,100.0,13.4,1505.2,328.1,-0.8,1.8,2470.545,13.28,0.054,282.8
2021-05-21T05:10:03,42.805,6.029,-0.04,-0.008,-0.006,101.0,101.0,100.0,13.4,1505.2,328.8,-0.7,1.8,2470.454,13.28,0.04,258.7
2021-05-21T05:13:03,42.805,6.029,-0.062,0.016,0.016,99.0,101.0,101.0,13.4,1505.2,328.0,-0.7,1.8,2470.506,13.28,0.064,284.5
2021-05-21T05:16:03,42.805,6.029,-0.057,-0.002,0.006,100.0,99.0,100.0,13.4,1505.2,329.8,-0.8,1.8,2470.474,13.28,0.057,268.0
2021-05-21T05:19:03,42.805,6.029,-0.079,0.005,-0.025,99.0,99.0,101.0,13.4,1505.2,325.9,-0.7,1.8,2470.479,13.28,0.079,273.6
2021-05-21T05:22:03,42.805,6.029,-0.046,0.03,0.044,102.0,100.0,99.0,13.4,1505.2,324.1,-0.8,1.8,2470.51,13.28,0.054,303.1
2021-05-21T05:25:03,42.805,6.029,-0.054,0.019,0.017,99.0,100.0,100.0,13.3,1505.2,327.3,-0.8,1.9,2470.527,13.28,0.057,289.4
2021-05-21T05:28:03,42.805,6.029,-0.067,0.013,0.01,102.0,100.0,99.0,13.4,1505.2,327.8,-0.8,1.8,2470.478,13.28,0.068,281.0
2021-05-21T05:31:03,42.805,6.029,-0.083,0.034,0.026,99.0,102.0,101.0,13.4,1505.2,329.6,-0.7,1.8,2470.525,13.28,0.089,292.3
2021-05-21T05:34:03,42.805,6.029,-0.043,0.006,0.036,102.0,101.0,100.0,13.4,1505.2,324.9,-0.8,1.9,2470.475,13.28,0.043,277.9
2021-05-21T05:37:03,42.805,6.029,-0.085,0.013,0.016,100.0,102.0,100.0,13.3,1505.2,324.8,-0.7,1.9,2470.474,13.28,0.085,278.7
2021-05-21T05:40:03,42.805,6.029,-0.069,0.009,-0.023,99.0,99.0,101.0,13.3,1505.2,324.8,-0.8,1.8,2470.473,13.28,0.069,277.4
2021-05-21T05:43:03,42.805,6.029,-0.05,0.017,0.006,100.0,101.0,100.0,13.4,1505.2,327.0,-0.7,1.8,2470.451,13.28,0.052,288.8
2021-05-21T05:46:03,42.805,6.029,-0.041,-0.002,-0.031,101.0,101.0,100.0,13.3,1505.2,329.8,-0.7,1.8,2470.474,13.28,0.041,267.2
2021-05-21T05:49:03,42.805,6.029,-0.076,0.029,-0.014,101.0,103.0,99.0,13.4,1505.2,329.4,-0.7,1.8,2470.481,13.28,0.081,290.9
2021-05-21T05:52:03,42.805,6.029,-0.017,0.009,0.021,102.0,102.0,100.0,13.4,1505.2,329.5,-0.7,1.9,2470.469,13.28,0.019,297.9
2021-05-21T05:55:03,42.805,6.029,-0.05,0.01,0.007,101.0,99.0,100.0,13.4,1505.2,328.2,-0.7,1.8,2470.459,13.28,0.05,281.3
2021-05-21T05:58:03,42.805,6.029,-0.023,0.001,0.017,101.0,100.0,100.0,13.4,1505.2,326.2,-0.8,1.9,2470.46,13.28,0.023,272.5
2021-05-21T06:04:03,42.805,6.029,-0.053,0.0,0.012,101.0,101.0,101.0,13.4,1505.2,324.2,-0.8,1.8,2470.482,13.28,0.053,270.0
2021-05-21T06:07:03,42.805,6.029,-0.064,-0.022,-0.021,100.0,101.0,100.0,13.3,1505.2,326.5,-0.8,1.8,2470.487,13.28,0.067,251.0
2021-05-21T06:10:03,42.805,6.029,-0.054,0.003,0.002,101.0,101.0,100.0,13.4,1505.2,328.2,-0.8,1.9,2470.489,13.28,0.054,273.2
2021-05-21T06:13:03,42.805,6.029,-0.049,0.01,0.017,101.0,102.0,101.0,13.4,1505.2,329.8,-0.8,1.8,2470.458,13.28,0.05,281.5
2021-05-21T06:16:03,42.805,6.029,-0.03,0.006,0.018,102.0,100.0,101.0,13.3,1505.2,326.4,-0.7,1.8,2470.456,13.28,0.03,281.3
2021-05-21T06:19:03,42.805,6.029,-0.061,0.003,-0.029,102.0,100.0,99.0,13.3,1505.2,325.9,-0.8,1.9,2470.491,13.28,0.061,272.8
2021-05-21T06:22:03,42.805,6.029,-0.056,-0.008,0.006,103.0,101.0,101.0,13.4,1505.2,324.5,-0.8,1.8,2470.439,13.28,0.056,261.9
2021-05-21T06:25:03,42.805,6.029,-0.072,0.002,-0.002,101.0,100.0,102.0,13.4,1505.2,323.9,-0.8,1.8,2470.41,13.28,0.072,271.6
2021-05-21T06:28:03,42.805,6.029,-0.088,0.031,0.042,101.0,102.0,101.0,13.3,1505.2,327.0,-0.7,1.8,2470.428,13.28,0.093,289.4
2021-05-21T06:31:03,42.805,6.029,-0.055,0.006,0.025,102.0,101.0,100.0,13.4,1505.2,326.2,-0.7,1.8,2470.454,13.28,0.055,276.2
2021-05-21T06:34:03,42.805,6.029,-0.069,0.024,-0.006,99.0,102.0,102.0,13.4,1505.2,326.7,-0.8,1.8,2470.435,13.28,0.073,289.2
2021-05-21T06:37:03,42.805,6.029,-0.067,0.017,0.004,102.0,101.0,101.0,13.4,1505.2,327.8,-0.8,1.8,2470.452,13.28,0.069,284.2
2021-05-21T06:40:03,42.805,6.029,-0.053,0.024,0.033,102.0,101.0,100.0,13.4,1505.2,326.3,-0.8,1.8,2470.445,13.28,0.058,294.4
2021-05-21T06:43:03,42.805,6.029,-0.047,0.002,-0.032,101.0,101.0,100.0,13.3,1505.2,329.7,-0.8,1.9,2470.441,13.28,0.047,272.4
2021-05-21T06:46:03,42.805,6.029,-0.043,0.029,0.023,101.0,101.0,102.0,13.3,1505.2,328.2,-0.7,1.8,2470.443,13.28,0.051,304.0
2021-05-21T06:49:03,42.805,6.029,-0.034,-0.003,0.005,101.0,101.0,101.0,13.4,1505.2,328.6,-0.7,1.8,2470.444,13.28,0.034,265.0
2021-05-21T06:52:03,42.805,6.029,-0.055,0.011,0.029,100.0,102.0,101.0,13.4,1505.2,327.9,-0.7,1.8,2470.418,13.28,0.056,281.3
2021-05-21T06:55:03,42.805,6.029,-0.039,-0.01,-0.015,101.0,101.0,100.0,13.4,1505.2,327.4,-0.8,1.8,2470.42,13.28,0.04,255.6
2021-05-21T06:58:03,42.805,6.029,-0.048,0.029,0.016,101.0,101.0,101.0,13.3,1505.2,327.2,-0.8,1.8,2470.443,13.28,0.056,301.1
2021-05-21T07:04:03,42.805,6.029,-0.054,0.026,0.035,101.0,101.0,100.0,13.4,1505.2,325.2,-0.8,1.8,2470.466,13.28,0.059,295.7
2021-05-21T07:07:03,42.805,6.029,-0.053,0.004,0.003,102.0,101.0,101.0,13.4,1505.2,326.3,-0.7,1.8,2470.474,13.28,0.053,274.3
2021-05-21T07:10:03,42.805,6.029,-0.044,-0.004,0.0,102.0,101.0,101.0,13.3,1505.2,329.2,-0.8,1.8,2470.46,13.28,0.044,264.8
2021-05-21T07:13:03,42.805,6.029,-0.037,0.022,0.01,101.0,102.0,100.0,13.4,1505.2,327.1,-0.8,1.8,2470.445,13.28,0.043,300.7
2021-05-21T07:16:03,42.805,6.029,-0.037,0.005,0.024,102.0,100.0,101.0,13.4,1505.2,324.7,-0.8,1.8,2470.409,13.28,0.037,277.7
2021-05-21T07:19:03,42.805,6.029,-0.041,-0.005,-0.039,101.0,101.0,101.0,13.4,1505.2,324.9,-0.7,1.8,2470.399,13.28,0.041,263.0
2021-05-21T07:22:03,42.805,6.029,-0.03,0.009,0.051,101.0,101.0,100.0,13.4,1505.2,327.6,-0.8,1.8,2470.464,13.28,0.031,286.7
2021-05-21T07:25:03,42.805,6.029,-0.049,0.01,0.038,102.0,100.0,101.0,13.4,1505.2,327.4,-0.8,1.8,2470.435,13.28,0.05,281.5
2021-05-21T07:28:03,42.805,6.029,-0.053,0.022,0.045,101.0,101.0,100.0,13.4,1505.2,329.7,-0.7,1.8,2470.409,13.28,0.057,292.5
2021-05-21T07:31:03,42.805,6.029,-0.049,0.02,0.018,102.0,103.0,99.0,13.4,1505.2,326.7,-0.8,1.8,2470.426,13.28,0.052,292.2
2021-05-21T07:34:03,42.805,6.029,-0.051,0.006,0.02,100.0,102.0,99.0,13.3,1505.2,326.0,-0.8,1.8,2470.442,13.28,0.051,276.7
2021-05-21T07:37:03,42.805,6.029,-0.041,0.022,0.034,100.0,101.0,100.0,13.4,1505.2,325.6,-0.8,1.8,2470.464,13.28,0.046,298.2
2021-05-21T07:40:03,42.805,6.029,-0.053,-0.022,-0.037,101.0,101.0,101.0,13.4,1505.2,324.5,-0.7,1.8,2470.397,13.28,0.057,247.5
2021-05-21T07:43:03,42.805,6.029,-0.037,-0.001,0.03,102.0,101.0,100.0,13.4,1505.2,326.1,-0.8,1.8,2470.415,13.28,0.037,268.5
2021-05-21T07:46:03,42.805,6.029,-0.065,0.016,0.001,100.0,101.0,100.0,13.4,1505.2,324.1,-0.8,1.8,2470.414,13.28,0.066,283.8
2021-05-21T07:49:03,42.805,6.029,-0.062,0.018,-0.01,101.0,100.0,101.0,13.4,1505.2,324.6,-0.8,1.8,2470.439,13.28,0.064,286.2
2021-05-21T07:52:03,42.805,6.029,-0.044,0.023,0.0,101.0,101.0,100.0,13.3,1505.2,329.6,-0.7,1.8,2470.387,13.28,0.049,297.6
2021-05-21T07:55:03,42.805,6.029,-0.051,0.017,-0.015,100.0,101.0,101.0,13.4,1505.2,325.7,-0.8,1.8,2470.411,13.28,0.053,288.4
2021-05-21T07:58:03,42.805,6.029,-0.056,0.025,0.016,102.0,100.0,99.0,13.3,1505.2,327.7,-0.8,1.8,2470.364,13.28,0.061,294.1
2021-05-21T08:04:03,42.805,6.029,-0.047,0.005,0.021,102.0,101.0,100.0,13.4,1505.2,328.0,-0.8,1.8,2470.432,13.28,0.047,276.1
2021-05-21T08:07:03,42.805,6.029,-0.068,0.012,0.0,101.0,101.0,100.0,13.4,1505.2,324.6,-0.8,1.8,2470.418,13.28,0.069,280.0
2021-05-21T08:10:03,42.805,6.029,-0.009,0.01,0.041,101.0,100.0,100.0,13.4,1505.2,325.4,-0.8,1.8,2470.423,13.28,0.013,318.0
2021-05-21T08:13:03,42.805,6.029,-0.058,0.0,0.009,101.0,101.0,100.0,13.4,1505.2,328.5,-0.8,1.8,2470.398,13.28,0.057,270.0
2021-05-21T08:16:03,42.805,6.029,-0.044,0.004,0.02,102.0,101.0,100.0,13.4,1505.2,327.6,-0.7,1.8,2470.413,13.28,0.044,275.2
2021-05-21T08:19:03,42.805,6.029,-0.016,0.013,0.03,100.0,101.0,100.0,13.4,1505.2,328.1,-0.8,1.8,2470.433,13.28,0.02,309.1
2021-05-21T08:22:03,42.805,6.029,-0.05,0.026,0.016,101.0,101.0,100.0,13.4,1505.2,327.8,-0.8,1.8,2470.428,13.28,0.056,297.5
2021-05-21T08:25:03,42.805,6.029,-0.007,-0.007,0.046,102.0,100.0,100.0,13.4,1505.2,329.3,-0.8,1.8,2470.363,13.28,0.009,225.0
2021-05-21T08:28:03,42.805,6.029,-0.041,0.001,-0.007,102.0,100.0,100.0,13.4,1505.2,324.8,-0.7,1.9,2470.379,13.28,0.041,271.4
2021-05-21T08:31:03,42.805,6.029,-0.044,0.007,-0.014,101.0,101.0,101.0,13.3,1505.2,324.8,-0.7,1.8,2470.41,13.28,0.044,279.0
2021-05-21T08:34:03,42.805,6.029,-0.048,0.002,-0.006,101.0,100.0,101.0,13.4,1505.2,326.2,-0.7,1.8,2470.382,13.28,0.048,272.4
2021-05-21T08:37:03,42.805,6.029,-0.043,-0.003,-0.003,101.0,101.0,101.0,13.3,1505.2,326.5,-0.7,1.8,2470.392,13.28,0.043,266.0
2021-05-21T08:40:03,42.805,6.029,-0.047,-0.004,0.0,102.0,102.0,101.0,13.4,1505.2,324.5,-0.7,1.8,2470.363,13.28,0.047,265.1
2021-05-21T08:43:03,42.805,6.029,-0.047,0.011,0.025,102.0,101.0,99.0,13.4,1505.2,328.3,-0.8,1.8,2470.39,13.28,0.048,283.2
2021-05-21T08:46:03,42.805,6.029,-0.05,0.008,0.007,100.0,102.0,101.0,13.4,1505.2,329.1,-0.8,1.8,2470.391,13.28,0.05,279.1
2021-05-21T08:49:03,42.805,6.029,-0.041,0.009,0.01,101.0,101.0,99.0,13.4,1505.2,327.7,-0.7,1.8,2470.36,13.28,0.041,282.4
2021-05-21T08:52:03,42.805,6.029,-0.052,-0.004,-0.027,99.0,102.0,100.0,13.4,1505.2,328.9,-0.7,1.8,2470.384,13.28,0.052,265.6
2021-05-21T08:55:03,42.805,6.029,-0.043,0.013,0.02,101.0,101.0,101.0,13.4,1505.2,325.9,-0.7,1.8,2470.344,13.28,0.044,286.8
2021-05-21T08:58:03,42.805,6.029,-0.042,0.015,-0.001,101.0,100.0,101.0,13.3,1505.2,328.5,-0.8,1.8,2470.365,13.28,0.044,289.6
2021-05-21T09:04:03,42.805,6.029,-0.046,-0.011,-0.021,100.0,102.0,101.0,13.4,1505.2,329.0,-0.7,1.8,2470.404,13.28,0.047,256.6
2021-05-21T09:07:03,42.805,6.029,-0.032,0.014,0.006,101.0,101.0,100.0,13.3,1505.2,326.5,-0.8,1.8,2470.344,13.28,0.034,293.6
2021-05-21T09:10:03,42.805,6.029,-0.059,0.018,0.036,103.0,101.0,99.0,13.4,1505.2,324.8,-0.8,1.8,2470.424,13.28,0.061,287.0
2021-05-21T09:13:03,42.805,6.029,-0.047,0.023,0.031,100.0,100.0,101.0,13.4,1505.2,328.2,-0.7,1.8,2470.417,13.28,0.052,296.1
2021-05-21T09:16:03,42.805,6.029,-0.02,-0.008,-0.014,101.0,102.0,100.0,13.3,1505.2,329.3,-0.8,1.8,2470.389,13.28,0.021,248.2
2021-05-21T09:19:03,42.805,6.029,-0.032,0.003,0.012,100.0,101.0,101.0,13.3,1505.2,327.7,-0.7,1.8,2470.374,13.28,0.032,275.4
2021-05-21T09:22:03,42.805,6.029,-0.071,0.002,-0.016,101.0,101.0,100.0,13.4,1505.2,328.9,-0.7,1.8,2470.38,13.28,0.071,271.6
2021-05-21T09:25:03,42.805,6.029,-0.061,0.018,0.002,102.0,99.0,100.0,13.4,1505.2,328.8,-0.7,1.8,2470.364,13.28,0.063,286.4
2021-05-21T09:28:03,42.805,6.029,-0.055,0.001,-0.027,101.0,100.0,100.0,13.4,1505.2,329.4,-0.7,1.8,2470.383,13.28,0.055,271.0
2021-05-21T09:31:03,42.805,6.029,-0.051,0.021,0.031,99.0,100.0,100.0,13.4,1505.2,328.9,-0.8,1.8,2470.402,13.28,0.055,292.4
2021-05-21T09:34:03,42.805,6.029,-0.036,-0.007,0.015,101.0,101.0,100.0,13.4,1505.2,327.0,-0.8,1.8,2470.369,13.28,0.036,259.0
2021-05-21T09:37:03,42.805,6.029,-0.03,-0.002,-0.001,103.0,101.0,99.0,13.4,1505.2,324.5,-0.8,1.8,2470.398,13.28,0.03,266.2
2021-05-21T09:40:03,42.805,6.029,-0.044,0.023,0.048,100.0,100.0,100.0,13.3,1505.2,327.9,-0.8,1.8,2470.4,13.28,0.049,297.6
2021-05-21T09:43:03,42.805,6.029,-0.035,0.01,0.031,101.0,99.0,100.0,13.4,1505.2,327.9,-0.8,1.9,2470.331,13.28,0.036,285.9
2021-05-21T09:46:03,42.805,6.029,-0.058,0.011,0.019,100.0,101.0,100.0,13.4,1505.2,329.5,-0.8,1.8,2470.373,13.28,0.059,280.7
2021-05-21T09:49:03,42.805,6.029,-0.051,0.012,0.01,101.0,100.0,100.0,13.4,1505.2,326.4,-0.8,1.9,2470.381,13.28,0.052,283.2
2021-05-21T09:52:03,42.805,6.029,-0.028,0.014,0.047,99.0,100.0,100.0,13.4,1505.2,328.9,-0.8,1.8,2470.352,13.28,0.031,296.6
2021-05-21T09:55:03,42.805,6.029,-0.061,-0.003,-0.004,99.0,101.0,101.0,13.3,1505.2,328.2,-0.7,1.8,2470.329,13.28,0.061,267.2